This is the latest recevied weather packets stored in our database for station/object KM4CNW. If no packets are shown the sender has not sent any weather packets the latest 10 day(s).
| Time | Temp. | Humidity | Pressure | Rain* | Wind** | Luminosity | Snow |
|---|---|---|---|---|---|---|---|
| 1777992493 | 22.78° C | 50% | 1010.9 hPa | 0 mm | - | 616 W/m² | - |
| 1777992192 | 22.22° C | 50% | 1011.1 hPa | 0 mm | - | 628 W/m² | - |
| 1777991888 | 21.67° C | 51% | 1011 hPa | 0 mm | - | 619 W/m² | - |
| 1777991585 | 21.67° C | 53% | 1011 hPa | 0 mm | - | 570 W/m² | - |
| 1777991282 | 21.67° C | 52% | 1010.8 hPa | 0 mm | - | 570 W/m² | - |
| 1777990979 | 21.67° C | 52% | 1010.9 hPa | 0 mm | - | 578 W/m² | - |
| 1777990677 | 21.11° C | 53% | 1010.9 hPa | 0 mm | - | 580 W/m² | - |
| 1777990374 | 21.11° C | 54% | 1010.7 hPa | 0 mm | - | 447 W/m² | - |
| 1777990070 | 20.56° C | 57% | 1010.9 hPa | 0 mm | - | 269 W/m² | - |
| 1777989767 | 20.56° C | 57% | 1010.9 hPa | 0 mm | - | 169 W/m² | - |
| 1777989464 | 20° C | 57% | 1010.9 hPa | 0 mm | - | 62 W/m² | - |
| 1777989160 | 20° C | 60% | 1010.8 hPa | 0 mm | - | 51 W/m² | - |
| 1777988856 | 20° C | 58% | 1010.7 hPa | 0 mm | - | 53 W/m² | - |
| 1777988554 | 20° C | 61% | 1010.9 hPa | 0 mm | - | 48 W/m² | - |
| 1777988250 | 19.44° C | 61% | 1011 hPa | 0 mm | - | 44 W/m² | - |
| 1777987947 | 19.44° C | 61% | 1010.6 hPa | 0 mm | - | 43 W/m² | - |
| 1777987642 | 18.89° C | 62% | 1010.6 hPa | 0 mm | - | 77 W/m² | - |
| 1777987340 | 18.89° C | 64% | 1010.8 hPa | 0 mm | - | 166 W/m² | - |
| 1777987037 | 18.33° C | 63% | 1010.7 hPa | 0 mm | - | 55 W/m² | - |
| 1777986735 | 18.33° C | 65% | 1010.8 hPa | 0 mm | - | 39 W/m² | - |
| 1777986432 | 18.33° C | 65% | 1010.8 hPa | 0 mm | - | 38 W/m² | - |
| 1777986131 | 17.78° C | 66% | 1010.7 hPa | 0 mm | - | 38 W/m² | - |
| 1777985827 | 17.78° C | 67% | 1010.8 hPa | 0 mm | - | 36 W/m² | - |
| 1777985524 | 17.78° C | 67% | 1010.9 hPa | 0 mm | - | 37 W/m² | - |
| 1777985220 | 17.22° C | 68% | 1010.8 hPa | 0 mm | - | 42 W/m² | - |
* Rain latest hour (hover to see other rain measurements)
** Current wind speed in m/s (hover to see current wind gust speed)